Location: Granada Hills
(34.2650°N, 118.5220°W)
Time: 08:52:08
(UTC-07:00)

deb Kosmos-1763 - Visible Passes

Search period start: 25 June 2016 00:00
Search period end: 05 July 2016 00:00
Orbit: 508 x 529 km, 74.0° (Epoch: 24 June)

Date Brightness Start Highest point End Pass type
(mag) Time Alt. Az. Time Alt. Az. Time Alt. Az.
25 Jun 4.6 20:54:11 10° SSW 20:58:01 68° WNW 21:01:56 10° NNE visible
26 Jun 4.5 20:39:39 10° SSW 20:43:31 73° WNW 20:47:25 10° NNE visible
03 Jul 6.4 05:11:08 10° N 05:14:41 31° ENE 05:18:11 10° SE visible
04 Jul 6.5 04:56:37 10° N 05:00:06 29° ENE 05:03:33 10° SE visible
